Location: Hoyos del Collado
(40.3594°N, 5.2003°W)
Time: 12:50:57
(UTC+00:00)

Cosmos 1605 Rocket - Pass Details

Date: 18 April 2024
Orbit: 944 x 1005 km, 82.9° (Epoch: 26 May)

Event Time Altitude Azimuth Distance (km) Brightness Sun altitude
Rises 21:08:45 0° 355° (N) 3,738 7.7 -22.1°
Reaches altitude 10° 21:11:21 10° 359° (N) 2,780 6.9 -22.5°
Maximum altitude 21:17:41 65° 80° (E) 1,084 4.0 -23.4°
Enters shadow 21:19:15 49° 137° (SE) 1,251 4.1 -23.6°
